Woensdrecht, Netherlands

4:07 AM CEST on April 25, 2018 (GMT +0200)
Woensdrecht Air Base

Weather History for EHWO - May, 2013

Change the Weather History Date:

Saturday, May 11, 2013

  Actual Average Record
Temperature  
Mean Temperature 52 °F -  
Max Temperature 57 °F 64 °F 86 °F (1998)
Min Temperature 46 °F 47 °F 33 °F (2005)
Degree Days  
Heating Degree Days 14    
Growing Degree Days 2 (Base 50)    
Moisture  
Dew Point 45 °F    
Average Humidity 76    
Maximum Humidity 88    
Minimum Humidity 55    
Precipitation  
Precipitation 0.00 in - - ()
Sea Level Pressure  
Sea Level Pressure 29.89 in    
Wind  
Wind Speed 11 mph ()    
Max Wind Speed 21 mph    
Max Gust Speed 34 mph    
Visibility 6.2 miles    
Events Rain    
Averages and records for this station are not official NWS values.
T = Trace of Precipitation, MM = Missing Value Source: Averaged Metar Reports

Daily Weather History Graph

Daily Weather History Graph

Search for Another Location

Airport or City:

Astronomy

May. 11, 2013 Rise Set
Actual Time 5:57 AM CEST 9:21 PM CEST
Civil Twilight 5:16 AM CEST 10:02 PM CEST
Nautical Twilight 4:22 AM CEST 10:57 PM CEST
Astronomical Twilight 3:07 AM CEST 12:13 AM CEST
Moon 6:50 AM CEST (5/11) 10:53 PM CEST (5/11)
Length of Visible Light 16h 45m
Length of Day
15h 24m
New Moon, 2% of the Moon is Illuminated
May 11
New Moon
May 18
First Quarter
May 25
Full
May 31
Last Quarter
Jun 8
New

Hourly Weather History & Observations

Time (CEST) Temp. Windchill Dew Point Humidity Pressure Visibility Wind Dir Wind Speed Gust Speed Precip Events Conditions
12:25 AM 51.8 °F - 42.8 °F 71% 30.01 in 6.2 mi SW 9.2 mph - N/A   Mostly Cloudy
12:55 AM 51.8 °F - 42.8 °F 71% 29.98 in 6.2 mi SW 11.5 mph - N/A   Mostly Cloudy
1:25 AM 50.0 °F - 42.8 °F 76% 29.98 in 6.2 mi SW 9.2 mph - N/A   Mostly Cloudy
1:55 AM 50.0 °F - 42.8 °F 76% 29.98 in 6.2 mi SSW 6.9 mph - N/A   Partly Cloudy
2:25 AM 50.0 °F - 42.8 °F 76% 29.98 in 6.2 mi SSW 8.1 mph - N/A   Unknown
2:55 AM 50.0 °F - 42.8 °F 76% 29.98 in 6.2 mi SSW 6.9 mph - N/A   Overcast
3:25 AM 50.0 °F - 42.8 °F 76% 29.98 in 6.2 mi SW 9.2 mph - N/A   Overcast
3:55 AM 50.0 °F - 42.8 °F 76% 29.95 in 6.2 mi SSW 6.9 mph - N/A   Overcast
4:25 AM 51.8 °F - 42.8 °F 71% 29.95 in 6.2 mi SSW 8.1 mph - N/A   Overcast
4:55 AM 51.8 °F - 42.8 °F 71% 29.95 in 6.2 mi SW 9.2 mph - N/A   Overcast
5:25 AM 51.8 °F - 42.8 °F 71% 29.92 in 6.2 mi SSW 8.1 mph - N/A   Overcast
5:55 AM 51.8 °F - 42.8 °F 71% 29.92 in 6.2 mi SW 9.2 mph - N/A   Overcast
6:25 AM 51.8 °F - 42.8 °F 71% 29.92 in 6.2 mi SSW 8.1 mph - N/A   Overcast
6:55 AM 51.8 °F - 42.8 °F 71% 29.92 in 6.2 mi SW 9.2 mph - N/A   Overcast
7:25 AM 51.8 °F - 42.8 °F 71% 29.92 in 6.2 mi SW 9.2 mph - N/A   Mostly Cloudy
7:55 AM 51.8 °F - 42.8 °F 71% 29.92 in 6.2 mi SW 9.2 mph - N/A   Overcast
8:17 AM 51.8 °F - 44.6 °F 76% 29.92 in 6.2 mi SW 9.2 mph - N/A   Mostly Cloudy
8:25 AM 51.8 °F - 44.6 °F 76% 29.92 in 6.2 mi SW 9.2 mph - N/A   Overcast
8:55 AM 51.8 °F - 44.6 °F 76% 29.92 in 6.2 mi SW 11.5 mph - N/A   Overcast
9:06 AM 51.8 °F - 44.6 °F 76% 29.92 in 6.2 mi WSW 13.8 mph - N/A   Overcast
9:11 AM 51.8 °F - 44.6 °F 76% 29.92 in 6.2 mi WSW 15.0 mph - N/A Rain Light Rain
9:15 AM 50.0 °F - 44.6 °F 82% 29.92 in 6.2 mi WSW 13.8 mph - N/A   Light Drizzle
9:25 AM 50.0 °F - 44.6 °F 82% 29.92 in 6.2 mi WSW 13.8 mph - N/A   Mostly Cloudy
9:29 AM 50.0 °F - 44.6 °F 82% 29.92 in 6.2 mi WSW 13.8 mph - N/A   Overcast
9:41 AM 50.0 °F - 44.6 °F 82% 29.92 in 6.2 mi WSW 13.8 mph - N/A   Mostly Cloudy
9:45 AM 50.0 °F - 44.6 °F 82% 29.92 in 6.2 mi WSW 15.0 mph - N/A   Mostly Cloudy
9:55 AM 51.8 °F - 42.8 °F 71% 29.95 in 6.2 mi WSW 17.3 mph - N/A   Mostly Cloudy
10:00 AM 50.0 °F - 42.8 °F 76% 29.95 in 6.2 mi WSW 16.1 mph - N/A   Mostly Cloudy
10:25 AM 48.2 °F - 42.8 °F 82% 29.92 in 6.2 mi WSW 13.8 mph - N/A Rain Light Rain
10:29 AM 48.2 °F - 42.8 °F 82% 29.92 in 6.2 mi WSW 13.8 mph - N/A Rain Heavy Rain Showers
10:55 AM 46.4 °F 41.9 °F 42.8 °F 87% 29.92 in 6.2 mi SW 9.2 mph - N/A Rain Light Rain
11:25 AM 48.2 °F - 44.6 °F 87% 29.92 in 6.2 mi SSW 8.1 mph - N/A Rain Light Rain
11:55 AM 48.2 °F - 44.6 °F 87% 29.92 in 6.2 mi SSW 6.9 mph - N/A Rain Light Rain
12:01 PM 50.0 °F - 44.6 °F 82% 29.92 in 6.2 mi SW 9.2 mph - N/A   Mostly Cloudy
12:08 PM 50.0 °F - 44.6 °F 82% 29.92 in 6.2 mi SW 10.4 mph - N/A   Scattered Clouds
12:16 PM 51.8 °F - 46.4 °F 82% 29.92 in 6.2 mi SW 11.5 mph - N/A   Scattered Clouds
12:25 PM 51.8 °F - 44.6 °F 76% 29.92 in 6.2 mi SW 12.7 mph - N/A   Mostly Cloudy
12:39 PM 51.8 °F - 46.4 °F 82% 29.89 in 6.2 mi SW 13.8 mph - N/A   Mostly Cloudy
12:43 PM 51.8 °F - 46.4 °F 82% 29.89 in 6.2 mi SW 15.0 mph - N/A   Mostly Cloudy
12:55 PM 53.6 °F - 46.4 °F 77% 29.89 in 6.2 mi SW 16.1 mph - N/A   Mostly Cloudy
1:03 PM 55.4 °F - 44.6 °F 67% 29.89 in 6.2 mi SW 16.1 mph - N/A   Mostly Cloudy
1:06 PM 53.6 °F - 44.6 °F 72% 29.89 in 6.2 mi SW 17.3 mph - N/A   Mostly Cloudy
1:25 PM 53.6 °F - 42.8 °F 67% 29.89 in 6.2 mi SW 12.7 mph - N/A Rain Light Rain
1:55 PM 53.6 °F - 44.6 °F 72% 29.89 in 6.2 mi WSW 12.7 mph - N/A   Overcast
2:00 PM 55.4 °F - 44.6 °F 67% 29.89 in 6.2 mi WSW 12.7 mph - N/A   Mostly Cloudy
2:25 PM 57.2 °F - 41.0 °F 55% 29.89 in 6.2 mi SW 15.0 mph - N/A   Scattered Clouds
2:55 PM 53.6 °F - 41.0 °F 62% 29.86 in 6.2 mi SW 16.1 mph - N/A Rain Drizzle
3:05 PM 53.6 °F - 44.6 °F 72% 29.89 in 4.3 mi WSW 20.7 mph - N/A   Light Drizzle
3:09 PM 53.6 °F - 44.6 °F 72% 29.89 in 6.2 mi WSW 19.6 mph - N/A   Light Drizzle
3:25 PM 53.6 °F - 44.6 °F 72% 29.89 in 6.2 mi SW 13.8 mph - N/A   Heavy Drizzle
3:50 PM 53.6 °F - 44.6 °F 72% 29.86 in 6.2 mi SW 12.7 mph 24.2 mph N/A Rain Light Rain
3:55 PM 53.6 °F - 44.6 °F 72% 29.86 in 6.2 mi SW 15.0 mph - N/A   Drizzle
4:14 PM 51.8 °F - 46.4 °F 82% 29.86 in 3.7 mi SW 13.8 mph - N/A Rain Light Rain
4:25 PM 51.8 °F - 46.4 °F 82% 29.86 in 6.2 mi SW 12.7 mph - N/A Rain Light Rain
4:38 PM 51.8 °F - 48.2 °F 88% 29.86 in 6.2 mi SW 12.7 mph 24.2 mph N/A   Overcast
4:55 PM 51.8 °F - 46.4 °F 82% 29.86 in 6.2 mi SW 12.7 mph - N/A   Overcast
5:08 PM 53.6 °F - 48.2 °F 82% 29.86 in 6.2 mi SW 13.8 mph - N/A   Overcast
5:10 PM 53.6 °F - 48.2 °F 82% 29.86 in 6.2 mi SW 12.7 mph - N/A   Mostly Cloudy
5:19 PM 53.6 °F - 48.2 °F 82% 29.86 in 6.2 mi SW 13.8 mph 25.3 mph N/A   Mostly Cloudy
5:25 PM 53.6 °F - 48.2 °F 82% 29.86 in 6.2 mi SW 15.0 mph - N/A   Mostly Cloudy
5:55 PM 55.4 °F - 48.2 °F 77% 29.86 in 6.2 mi SW 18.4 mph - N/A   Mostly Cloudy
6:01 PM 55.4 °F - 48.2 °F 77% 29.86 in 6.2 mi SW 19.6 mph - N/A   Mostly Cloudy
6:25 PM 55.4 °F - 46.4 °F 72% 29.83 in 6.2 mi WSW 16.1 mph - N/A   Mostly Cloudy
6:55 PM 55.4 °F - 46.4 °F 72% 29.83 in 6.2 mi SW 17.3 mph - N/A   Overcast
7:25 PM 55.4 °F - 46.4 °F 72% 29.83 in 6.2 mi SW 18.4 mph - N/A   Overcast
7:55 PM 55.4 °F - 44.6 °F 67% 29.83 in 6.2 mi SW 18.4 mph - N/A   Overcast
8:25 PM 53.6 °F - 46.4 °F 77% 29.83 in 6.2 mi SW 13.8 mph - N/A   Mostly Cloudy
8:33 PM 53.6 °F - 44.6 °F 72% 29.83 in 6.2 mi SW 13.8 mph - N/A   Overcast
8:45 PM 53.6 °F - 46.4 °F 77% 29.83 in 6.2 mi SW 13.8 mph - N/A   Mostly Cloudy
8:49 PM 53.6 °F - 46.4 °F 77% 29.83 in 6.2 mi SW 15.0 mph - N/A   Overcast
8:55 PM 53.6 °F - 46.4 °F 77% 29.83 in 6.2 mi SW 15.0 mph - N/A   Overcast
9:01 PM 53.6 °F - 46.4 °F 77% 29.83 in 6.2 mi SW 15.0 mph - N/A   Mostly Cloudy
9:02 PM 53.6 °F - 46.4 °F 77% 29.83 in 6.2 mi SW 16.1 mph - N/A   Overcast
9:17 PM 53.6 °F - 46.4 °F 77% 29.83 in 6.2 mi SW 16.1 mph - N/A   Overcast
9:25 PM 53.6 °F - 46.4 °F 77% 29.83 in 6.2 mi SW 13.8 mph - N/A   Mostly Cloudy
9:32 PM 53.6 °F - 44.6 °F 72% 29.83 in 6.2 mi SW 16.1 mph - N/A   Mostly Cloudy
9:37 PM 53.6 °F - 44.6 °F 72% 29.83 in 6.2 mi SW 18.4 mph - N/A   Mostly Cloudy
9:44 PM 53.6 °F - 44.6 °F 72% 29.83 in 6.2 mi SW 17.3 mph - N/A   Mostly Cloudy
9:55 PM 51.8 °F - 44.6 °F 76% 29.83 in 6.2 mi SW 16.1 mph - N/A   Mostly Cloudy
10:25 PM 51.8 °F - 44.6 °F 76% 29.86 in 6.2 mi SW 18.4 mph - N/A   Overcast
10:33 PM 51.8 °F - 44.6 °F 76% 29.86 in 6.2 mi SW 20.7 mph 34.5 mph N/A   Overcast
10:42 PM 51.8 °F - 44.6 °F 76% 29.86 in 6.2 mi SW 19.6 mph - N/A Rain Light Rain
10:43 PM 51.8 °F - 44.6 °F 76% 29.86 in 6.2 mi WSW 20.7 mph - N/A Rain Light Rain
10:55 PM 50.0 °F - 44.6 °F 82% 29.86 in 6.2 mi WSW 18.4 mph - N/A Rain Light Drizzle
11:25 PM 50.0 °F - 44.6 °F 82% 29.86 in 6.2 mi SW 16.1 mph - N/A Rain Light Rain
11:30 PM 50.0 °F - 44.6 °F 82% 29.86 in 6.2 mi SW 16.1 mph - N/A   Drizzle
11:39 PM 50.0 °F - 44.6 °F 82% 29.86 in 6.2 mi SW 15.0 mph - N/A   Light Drizzle
11:46 PM 50.0 °F - 44.6 °F 82% 29.86 in 6.2 mi SW 13.8 mph - N/A   Light Drizzle
11:55 PM 50.0 °F - 44.6 °F 82% 29.86 in 6.2 mi SW 15.0 mph - N/A   Overcast